Date String (YYYY-MM-DD hh:mm:ss) UTC,Instrument flags,Ambient pressure (hPa),Sample flow (lpm),Bypass flow (lpm),Sample temperature (°C),Ambient temperature (°C),ASC tube jacket temperature (°C),LED temperature (°C),Box temperature (°C),Sample RH (%),Span deviation,Mass concentration (μg/m³),Mass concentration (μg/m³),Mass concentration (μg/m³)
DateTimeUTC,F1_M11,P_M11,Q1_M11,Q2_M11,T1_M11,T2_M11,T3_M11,T4_M11,T5_M11,U1_M11,ZSPAN_M11,X0_M11,X2_M11,X1_M11
2022-02-15 07:00:00,,0819.4,4.99,0.00,23.7,22.8,00.0,32.8,25.4,05.2,0000.0,0004.20,0002.16,0001.77
2022-02-15 07:01:00,,0819.3,5.01,0.00,23.7,22.8,00.0,32.8,25.4,05.1,0000.0,0003.82,0002.11,0001.73
2022-02-15 07:02:00,,0819.3,4.99,0.00,23.7,22.9,00.0,32.8,25.4,04.8,0000.0,0003.87,0002.07,0001.70
2022-02-15 07:03:00,,0819.3,5.02,0.00,23.7,22.9,00.0,32.8,25.4,04.8,0000.0,0003.79,0002.01,0001.66
2022-02-15 07:04:00,,0819.2,5.00,0.00,23.6,22.8,00.0,32.7,25.3,04.7,0000.0,0003.77,0001.93,0001.59
2022-02-15 07:05:00,,0819.2,4.99,0.00,23.6,22.9,00.0,32.7,25.3,05.1,0000.0,0003.44,0001.82,0001.52
2022-02-15 07:06:00,,0819.2,4.99,0.00,23.6,22.8,00.0,32.7,25.3,05.2,0000.0,0003.06,0001.75,0001.46
2022-02-15 07:07:00,,0819.2,5.01,0.00,23.6,22.9,00.0,32.7,25.3,04.9,0000.0,0003.05,0001.69,0001.41
2022-02-15 07:08:00,,0819.2,5.01,0.00,23.6,22.9,00.0,32.7,25.4,04.7,0000.0,0003.01,0001.64,0001.38
2022-02-15 07:09:00,,0819.2,4.99,0.00,23.6,22.9,00.0,32.7,25.4,04.7,0000.0,0003.03,0001.64,0001.36
2022-02-15 07:10:00,,0819.2,5.02,0.00,23.6,22.9,00.0,32.7,25.3,04.6,0000.0,0003.21,0001.69,0001.36
2022-02-15 07:11:00,,0819.2,4.99,0.00,23.6,22.9,00.0,32.7,25.4,04.7,0000.0,0003.43,0001.72,0001.35
2022-02-15 07:12:00,,0819.2,4.99,0.00,23.6,22.9,00.0,32.7,25.4,04.6,0000.0,0003.39,0001.76,0001.35
2022-02-15 07:13:00,,0819.2,5.00,0.00,23.7,22.9,00.0,32.7,25.4,04.5,0000.0,0003.32,0001.81,0001.36
2022-02-15 07:14:00,,0819.2,5.00,0.00,23.7,22.9,00.0,32.7,25.4,04.5,0000.0,0003.28,0001.81,0001.35
2022-02-15 07:15:00,,0819.2,4.99,0.00,23.7,22.9,00.0,32.7,25.4,04.6,0000.0,0003.27,0001.84,0001.36
2022-02-15 07:16:00,,0819.2,5.00,0.00,23.7,22.9,00.0,32.7,25.4,04.6,0000.0,0003.33,0001.86,0001.37
2022-02-15 07:17:00,,0819.2,4.98,0.00,23.7,22.9,00.0,32.7,25.4,04.5,0000.0,0003.34,0001.87,0001.37
2022-02-15 07:18:00,,0819.2,5.00,0.00,23.7,22.9,00.0,32.7,25.4,04.6,0000.0,0003.20,0001.85,0001.37
2022-02-15 07:19:00,,0819.3,5.01,0.00,23.7,22.9,00.0,32.7,25.4,04.6,0000.0,0003.15,0001.84,0001.37
2022-02-15 07:20:00,,0819.3,4.99,0.00,23.7,22.9,00.0,32.7,25.4,04.7,0000.0,0003.14,0001.86,0001.37
2022-02-15 07:21:00,,0819.3,5.01,0.00,23.7,22.9,00.0,32.7,25.4,04.7,0000.0,0003.05,0001.79,0001.35
2022-02-15 07:22:00,,0819.3,4.98,0.00,23.6,22.9,00.0,32.7,25.4,04.8,0000.0,0002.91,0001.79,0001.36
2022-02-15 07:23:00,,0819.3,5.01,0.00,23.6,22.9,00.0,32.7,25.4,04.7,0000.0,0002.76,0001.77,0001.35
2022-02-15 07:24:00,,0819.2,5.01,0.00,23.6,22.9,00.0,32.7,25.4,04.7,0000.0,0002.66,0001.74,0001.34
2022-02-15 07:25:00,,0819.2,5.00,0.00,23.6,22.9,00.0,32.7,25.4,04.6,0000.0,0002.74,0001.75,0001.34
2022-02-15 07:26:00,,0819.2,5.01,0.00,23.6,22.9,00.0,32.7,25.4,04.4,0000.0,0003.20,0001.71,0001.33
2022-02-15 07:27:00,,0819.3,4.99,0.00,23.6,22.8,00.0,32.7,25.3,04.5,0000.0,0003.98,0001.67,0001.32
2022-02-15 07:28:00,,0819.2,5.01,0.00,23.6,22.8,00.0,32.7,25.3,04.4,0000.0,0004.04,0001.69,0001.32
2022-02-15 07:29:00,,0819.3,5.00,0.00,23.6,22.8,00.0,32.7,25.3,04.4,0000.0,0004.19,0001.74,0001.33
2022-02-15 07:30:00,,0819.3,5.01,0.00,23.6,22.8,00.0,32.7,25.3,04.3,0000.0,0004.16,0001.75,0001.33
2022-02-15 07:31:00,,0819.2,4.99,0.00,23.6,22.8,00.0,32.6,25.3,04.3,0000.0,0004.08,0001.74,0001.33
2022-02-15 07:32:00,,0819.2,5.00,0.00,23.6,22.8,00.0,32.6,25.3,04.3,0000.0,0004.13,0001.78,0001.33
2022-02-15 07:33:00,,0819.2,5.01,0.00,23.6,22.8,00.0,32.6,25.3,04.2,0000.0,0004.10,0001.76,0001.33
2022-02-15 07:34:00,,0819.2,5.00,0.00,23.6,22.8,00.0,32.6,25.3,04.2,0000.0,0004.10,0001.76,0001.33
2022-02-15 07:35:00,,0819.2,5.00,0.00,23.5,22.8,00.0,32.6,25.2,04.2,0000.0,0004.13,0001.77,0001.33
2022-02-15 07:36:00,,0819.2,5.00,0.00,23.5,22.7,00.0,32.6,25.2,04.2,0000.0,0004.23,0001.80,0001.34
2022-02-15 07:37:00,,0819.3,5.00,0.00,23.5,22.7,00.0,32.6,25.2,04.2,0000.0,0004.18,0001.80,0001.34
2022-02-15 07:38:00,,0819.2,5.00,0.00,23.4,22.6,00.0,32.6,25.1,04.3,0000.0,0002.95,0001.79,0001.34
2022-02-15 07:39:00,,0819.2,5.01,0.00,23.4,22.6,00.0,32.6,25.1,04.3,0000.0,0002.78,0001.77,0001.34
2022-02-15 07:40:00,,0819.2,4.99,0.00,23.4,22.5,00.0,32.5,25.1,04.3,0000.0,0002.65,0001.72,0001.32
2022-02-15 07:41:00,,0819.1,5.01,0.00,23.4,22.5,00.0,32.5,25.1,04.3,0000.0,0002.64,0001.72,0001.33
2022-02-15 07:42:00,,0819.1,4.99,0.00,23.4,22.6,00.0,32.5,25.1,04.3,0000.0,0002.63,0001.72,0001.33
2022-02-15 07:43:00,,0819.1,5.00,0.00,23.4,22.6,00.0,32.5,25.1,04.3,0000.0,0002.55,0001.70,0001.33
2022-02-15 07:44:00,,0819.1,5.01,0.00,23.4,22.7,00.0,32.5,25.1,04.4,0000.0,0002.58,0001.69,0001.33
2022-02-15 07:45:00,,0819.1,4.99,0.00,23.4,22.7,00.0,32.5,25.1,04.4,0000.0,0002.65,0001.69,0001.33
2022-02-15 07:46:00,,0819.1,5.00,0.00,23.4,22.7,00.0,32.5,25.2,04.4,0000.0,0002.73,0001.70,0001.33
2022-02-15 07:47:00,,0819.1,5.01,0.00,23.4,22.7,00.0,32.5,25.1,04.4,0000.0,0002.65,0001.69,0001.33
2022-02-15 07:48:00,,0819.0,4.99,0.00,23.4,22.6,00.0,32.4,25.1,04.5,0000.0,0002.49,0001.65,0001.32
2022-02-15 07:49:00,,0819.0,5.01,0.00,23.4,22.6,00.0,32.4,25.1,04.6,0000.0,0002.48,0001.64,0001.32
2022-02-15 07:50:00,,0818.9,5.00,0.00,23.3,22.6,00.0,32.4,25.1,04.5,0000.0,0002.53,0001.65,0001.32
2022-02-15 07:51:00,,0818.9,5.00,0.00,23.3,22.6,00.0,32.4,25.1,04.5,0000.0,0002.63,0001.67,0001.32
2022-02-15 07:52:00,,0819.0,4.99,0.00,23.3,22.6,00.0,32.4,25.1,04.5,0000.0,0002.67,0001.68,0001.32
2022-02-15 07:53:00,,0818.9,5.01,0.00,23.3,22.7,00.0,32.4,25.1,04.5,0000.0,0002.74,0001.67,0001.31
2022-02-15 07:54:00,,0818.9,5.00,0.00,23.4,22.7,00.0,32.4,25.1,04.4,0000.0,0002.81,0001.68,0001.30
2022-02-15 07:55:00,,0819.0,5.01,0.00,23.4,22.7,00.0,32.4,25.1,04.4,0000.0,0002.87,0001.63,0001.30
2022-02-15 07:56:00,,0818.9,4.98,0.00,23.4,22.7,00.0,32.4,25.2,04.3,0000.0,0003.84,0001.62,0001.30
2022-02-15 07:57:00,,0818.9,5.02,0.00,23.4,22.7,00.0,32.4,25.1,04.4,0000.0,0004.07,0001.60,0001.29
2022-02-15 07:58:00,,0818.9,4.99,0.00,23.3,22.7,00.0,32.4,25.1,04.3,0000.0,0004.04,0001.57,0001.29
2022-02-15 07:59:00,,0818.9,4.99,0.00,23.3,22.6,00.0,32.4,25.0,04.3,0000.0,0004.10,0001.57,0001.29
